[[{"header":{"parameterUnit":"m.s-1","parameterCategory":1,"la1":30.2991,"la2":30.254,"lo1":-89.0895,"lo2":-89.0444,"dy":0.0017,"dx":0.0017,"nx":28,"ny":28,"refTime":"2023-07-19T09:00:00:Z","depth":0,"parameterNumber":2,"parameterNumberName":"U-component_of_WINDS"},"data":[0,0,0,0,0,0,0,0,0,0,0,0,0,0,0,0,0,0,0,0,0,0,0,0,0,0,0,0,0,0,0,0,0,0,0,0,0,0,0,0,0,0,0,0,0,0,0,0,0,0,0,0,0,0,0,0,0,0,2.599,2.599,0,2.597,2.5969,2.5969,2.5925,2.5924,2.5924,2.5923,2.5902,2.5902,2.5902,0,0,0,0,0,0,0,0,0,0,0,0,0,2.5991,2.5991,2.599,2.599,2.599,2.597,2.5969,2.5969,2.5925,2.5924,2.5923,2.5922,2.5902,2.5902,2.5902,0,0,0,0,0,0,0,0,0,0,0,0,0,2.5983,2.5991,2.599,2.5965,2.5963,2.597,2.5969,2.5969,2.5926,2.5924,2.5923,2.5922,2.5902,2.5902,2.5903,2.5932,0,0,2.5904,2.5904,0,0,0,0,0,0,0,0,2.5983,2.5983,2.5969,2.5967,2.5965,2.5949,2.5962,2.5957,2.5926,2.594,2.5923,2.5921,2.5919,2.5918,2.5917,2.5931,2.593,2.5904,2.5904,2.5904,2.5904,0,0,0,0,0,0,0,2.5984,2.5983,2.5982,2.5969,2.5966,2.5955,2.5953,2.5961,2.5937,2.5939,2.5935,2.5934,2.5917,2.5916,2.5916,2.593,2.5904,2.5904,2.5904,2.5905,2.5965,2.5966,0,0,0,0,0,0,2.5988,2.5984,2.5983,2.5981,2.5971,2.5956,2.5953,2.5955,2.5937,2.5933,2.5935,2.5932,2.5916,2.5915,2.5915,2.5946,2.5904,2.5905,2.5905,2.5964,2.5965,2.5967,0,0,0,0,0,0,2.5988,2.5988,2.5984,2.5982,2.598,2.5958,2.596,2.5955,2.5955,2.5934,2.5929,2.5938,2.5915,2.5914,2.5927,2.5945,2.5905,2.5905,2.5962,2.5964,2.5966,2.601,0,0,0,0,0,0,2.5989,2.5989,2.6,2.5983,2.5981,2.5997,2.5961,2.5956,2.5955,2.5951,2.5936,2.5932,2.5914,2.5927,2.5928,2.5945,2.5906,2.596,2.5963,2.5965,2.6007,2.6013,2.6019,0,0,0,0,0,2.5989,2.6013,2.6,2.6001,2.5994,2.5998,2.5997,2.5975,2.5957,2.5968,2.5954,2.5933,2.5943,2.5929,2.5929,2.5947,2.5959,2.5962,2.5965,2.6004,2.6012,2.6019,0,0,0,0,0,0,2.6033,2.6011,2.5996,2.6016,2.6009,2.599,2.6003,2.5985,2.5983,2.5979,2.5952,2.5949,2.5966,2.5958,2.5942,2.5973,2.5948,2.5951,2.5977,2.5985,2.5991,2.5991,2.5906,0,0,0,0,0,2.6046,2.6051,2.6031,2.605,2.6047,2.6026,2.6027,2.6011,2.6003,2.6,2.5987,2.598,2.5981,2.5983,2.5983,2.6006,2.6001,2.6018,2.6024,2.6029,2.6032,2.6042,2.6048,2.5977,2.5977,2.5977,0,0,2.6071,2.6059,2.6064,2.6059,2.6052,2.6057,2.6024,2.6031,2.6035,2.6001,2.6012,2.6003,2.5993,2.601,2.6018,2.6004,2.6051,2.6033,2.6037,2.6037,2.6046,2.6052,2.6058,2.5979,2.5978,2.5978,0,0,2.6119,2.6111,2.6126,2.6119,2.6108,2.6094,2.6098,2.6082,2.6074,2.6085,2.6059,2.6063,2.6066,2.606,2.6057,2.6102,2.6082,2.6104,2.6134,2.6144,2.6149,2.6154,2.6169,2.6174,2.6107,2.6107,2.6107,0,2.6151,2.6158,2.6136,2.6144,2.6142,2.6112,2.6126,2.612,2.6111,2.611,2.6095,2.6098,2.609,2.6104,2.6115,2.6115,2.6117,2.6104,2.6151,2.6155,2.6159,2.6173,2.6178,2.6109,2.6109,2.6109,2.6108,0,2.6198,2.6203,2.6216,2.6207,2.6206,2.6218,2.6196,2.6199,2.6183,2.617,2.6181,2.617,2.6166,2.6169,2.6154,2.6182,2.6173,2.6155,2.6129,2.6169,2.6181,2.6186,2.6113,2.6112,2.6111,2.611,0,0,2.6272,2.625,2.6255,2.625,2.6236,2.6239,2.6249,2.6246,2.6247,2.6242,2.6249,2.6252,2.6235,2.6232,2.6216,2.6225,2.6259,2.6205,2.6205,2.6214,2.6287,2.6299,2.6305,2.6247,2.6248,2.6248,2.6287,0,2.6316,2.633,2.631,2.6329,2.6333,2.6304,2.6313,2.6305,2.6293,2.6295,2.6282,2.6284,2.6262,2.626,2.6267,2.6254,2.6273,2.6251,2.6251,2.6251,2.6252,2.6312,2.6325,2.6362,2.6292,2.6293,2.6293,0,2.6368,2.6364,2.6383,2.6367,2.6368,2.6376,2.637,2.6372,2.6363,2.6353,2.635,2.6331,2.6339,2.6315,2.6324,2.6309,2.6309,2.6302,2.6303,2.63,2.6273,2.6309,2.6374,2.6379,2.6301,2.63,2.6299,0,2.6417,2.6418,2.6429,2.6425,2.6407,2.6413,2.6406,2.6395,2.6394,2.6389,2.6388,2.6385,2.6383,2.6381,2.6361,2.6346,2.6373,2.6347,2.6364,2.6364,2.6369,2.6369,2.6433,2.6373,2.6372,2.6372,2.6372,0,2.6466,2.6479,2.645,2.6457,2.647,2.6447,2.6461,2.645,2.6441,2.6445,2.6421,2.6425,2.6399,2.64,2.6385,2.6395,2.6394,2.6386,2.6382,2.6387,2.6388,2.6385,2.6381,2.6374,2.6373,2.6373,2.6373,0,2.6523,2.6505,2.6515,2.6497,2.6493,2.6503,2.6487,2.6492,2.6479,2.6484,2.6484,2.6464,2.6464,2.6444,2.6441,2.643,2.6445,2.6437,2.6448,2.6445,2.6462,2.646,2.6524,2.6531,2.6469,2.6469,2.647,0,2.6555,2.6564,2.6546,2.6547,2.6541,2.6543,2.6541,2.6519,2.6518,2.6508,2.6514,2.6512,2.6509,2.6511,2.6495,2.6492,2.6482,2.6505,2.6481,2.6486,2.648,2.6479,2.6479,2.6509,2.651,2.6511,2.6511,0,2.6612,2.6602,2.6601,2.6597,2.6596,2.6591,2.6585,2.6587,2.6563,2.6563,2.6563,2.6561,2.6556,2.6554,2.6548,2.654,2.6521,2.6519,2.6522,2.6527,2.6532,2.6527,2.646,2.6517,2.6516,2.6516,2.6516,2.6515,2.6656,2.6661,2.665,2.6649,2.6642,2.6637,2.664,2.6628,2.6627,2.6621,2.6609,2.661,2.6599,2.6589,2.6583,2.6583,2.6572,2.6577,2.6578,2.6579,2.6582,2.6534,2.6582,2.6582,2.6582,2.6582,2.6582,0,2.6709,2.6701,2.67,2.6692,2.6691,2.6674,2.6667,2.6667,2.6668,2.666,2.6658,2.6657,2.6654,2.6639,2.6635,2.6638,2.6629,2.6637,2.6636,2.6634,2.6593,2.659,2.6644,2.6644,2.6644,2.6644,2.6644,2.6644,2.6737,2.6746,2.6735,2.6739,2.673,2.6731,2.6728,2.6723,2.6716,2.6716,2.6714,2.6704,2.6692,2.6687,2.6684,2.6679,2.6678,2.6689,2.6681,2.6643,2.6637,2.6631,2.6628,2.6689,2.669,2.6722,2.6722,2.6722]},{"header":{"parameterUnit":"m.s-1","parameterCategory":1,"la1":30.2991,"la2":30.254,"lo1":-89.0895,"lo2":-89.0444,"dy":0.0017,"dx":0.0017,"nx":28,"ny":28,"refTime":"2023-07-19T09:00:00:Z","depth":0,"parameterNumber":3,"parameterNumberName":"V-component_of_WINDS"},"data":[0,0,0,0,0,0,0,0,0,0,0,0,0,0,0,0,0,0,0,0,0,0,0,0,0,0,0,0,0,0,0,0,0,0,0,0,0,0,0,0,0,0,0,0,0,0,0,0,0,0,0,0,0,0,0,0,0,0,1.1741,1.1742,0,1.1854,1.1855,1.1857,1.1876,1.1875,1.1874,1.1873,1.199,1.1994,1.1998,0,0,0,0,0,0,0,0,0,0,0,0,0,1.1542,1.1545,1.1741,1.1742,1.1744,1.1854,1.1856,1.1857,1.1876,1.1875,1.1874,1.1872,1.1989,1.1993,1.1998,0,0,0,0,0,0,0,0,0,0,0,0,0,1.1639,1.1546,1.1741,1.1766,1.177,1.1854,1.1856,1.1858,1.1876,1.1875,1.1873,1.1872,1.1987,1.1993,1.1999,1.2065,0,0,1.2017,1.202,0,0,0,0,0,0,0,0,1.1633,1.1646,1.1761,1.1765,1.1769,1.1849,1.1828,1.1927,1.1877,1.1836,1.1873,1.1871,1.1944,1.1954,1.1978,1.2071,1.2076,1.2018,1.2021,1.2024,1.2026,0,0,0,0,0,0,0,1.1627,1.1641,1.1786,1.1763,1.1767,1.1773,1.1785,1.1847,1.1897,1.1839,1.1841,1.1854,1.1946,1.1972,1.1981,1.2077,1.2018,1.2023,1.2027,1.2029,1.223,1.2232,0,0,0,0,0,0,1.1615,1.1636,1.1782,1.1789,1.1696,1.1777,1.1791,1.1825,1.1896,1.1906,1.1855,1.1854,1.1963,1.1974,1.1985,1.2068,1.2024,1.203,1.2033,1.2229,1.2231,1.2233,0,0,0,0,0,0,1.1611,1.1628,1.1778,1.1713,1.1732,1.1782,1.182,1.1828,1.1854,1.1908,1.1917,1.1873,1.1962,1.1977,1.2045,1.2073,1.2032,1.2038,1.2227,1.2229,1.2232,1.2234,0,0,0,0,0,0,1.1605,1.1626,1.1652,1.1713,1.1736,1.1835,1.1822,1.1831,1.1865,1.1865,1.1927,1.1936,1.1962,1.2036,1.2051,1.208,1.2043,1.2224,1.2228,1.2231,1.2232,1.2236,1.224,0,0,0,0,0,1.1598,1.1648,1.1653,1.1671,1.1769,1.1837,1.185,1.1878,1.1867,1.1893,1.1928,1.1934,1.2067,1.2043,1.206,1.2091,1.2223,1.2227,1.2231,1.223,1.2236,1.224,0,0,0,0,0,0,1.1589,1.1657,1.1663,1.1735,1.178,1.184,1.1874,1.1883,1.1933,1.1931,1.1965,1.1979,1.2045,1.2075,1.2047,1.2159,1.2144,1.2151,1.2138,1.2143,1.2148,1.2139,1.2048,0,0,0,0,0,1.1595,1.1645,1.1701,1.1759,1.1782,1.1824,1.1855,1.1873,1.1921,1.194,1.198,1.2027,1.2079,1.2113,1.2164,1.2236,1.225,1.2266,1.227,1.2273,1.228,1.232,1.2328,1.2245,1.2245,1.2245,0,0,1.1609,1.1652,1.1682,1.1759,1.1796,1.1846,1.184,1.1894,1.1932,1.1948,1.2016,1.2046,1.2101,1.2171,1.2204,1.2198,1.2305,1.2278,1.228,1.2285,1.2325,1.2333,1.234,1.2248,1.2247,1.2247,0,0,1.1661,1.1698,1.175,1.1788,1.1844,1.1871,1.1884,1.1943,1.1964,1.2031,1.2045,1.2091,1.218,1.2218,1.2249,1.2315,1.2323,1.233,1.2353,1.2392,1.2399,1.2405,1.2429,1.2437,1.2336,1.2336,1.2336,0,1.1671,1.1748,1.1776,1.183,1.1863,1.188,1.1934,1.1969,1.2039,1.2062,1.2053,1.2166,1.2204,1.2284,1.2299,1.2324,1.234,1.2324,1.2395,1.2402,1.2408,1.2431,1.244,1.2337,1.2337,1.2337,1.2337,0,1.1758,1.1811,1.1846,1.1913,1.1951,1.2004,1.2041,1.2076,1.209,1.2119,1.2188,1.2233,1.2294,1.2314,1.2329,1.2396,1.2391,1.2389,1.2374,1.2416,1.2438,1.2447,1.2338,1.2337,1.2337,1.2337,0,0,1.1807,1.1889,1.1902,1.1932,1.1995,1.2037,1.2091,1.215,1.2179,1.2227,1.2273,1.2348,1.2347,1.2382,1.2401,1.2435,1.2485,1.2429,1.2431,1.2438,1.2562,1.2564,1.2574,1.249,1.2492,1.2493,1.2558,0,1.1867,1.1963,1.199,1.2072,1.2122,1.2138,1.2185,1.2229,1.2257,1.2304,1.2335,1.2387,1.2381,1.2402,1.2437,1.2471,1.251,1.2467,1.2534,1.2536,1.2521,1.2585,1.2587,1.2646,1.2567,1.2568,1.2569,0,1.1949,1.1998,1.2084,1.2141,1.2163,1.2204,1.2261,1.2305,1.2355,1.2373,1.2412,1.2428,1.2485,1.2467,1.2546,1.2516,1.2545,1.2566,1.2569,1.2577,1.2556,1.2595,1.2665,1.2674,1.2583,1.2582,1.2581,0,1.1977,1.2064,1.2128,1.2153,1.2221,1.225,1.2279,1.2328,1.2362,1.2411,1.2433,1.2488,1.2519,1.2561,1.2592,1.2575,1.2669,1.2653,1.2686,1.2685,1.2705,1.2704,1.2781,1.2723,1.2722,1.2722,1.2722,0,1.204,1.2093,1.2141,1.218,1.2239,1.227,1.2328,1.2358,1.2401,1.2447,1.2464,1.2506,1.2544,1.2591,1.2615,1.2678,1.2691,1.2707,1.2713,1.2706,1.2704,1.2726,1.2723,1.2725,1.2724,1.2724,1.2723,0,1.2082,1.2116,1.2186,1.2244,1.226,1.2302,1.2351,1.239,1.2418,1.2475,1.2491,1.2535,1.2592,1.2626,1.2698,1.2714,1.2783,1.2787,1.2766,1.2769,1.28,1.2797,1.2895,1.291,1.2841,1.2841,1.2842,0,1.2121,1.2161,1.2224,1.2255,1.2285,1.2335,1.237,1.2402,1.2437,1.2497,1.2528,1.2586,1.2634,1.2723,1.2762,1.2817,1.2823,1.2854,1.2832,1.2823,1.2824,1.2822,1.2826,1.2858,1.2858,1.2859,1.2859,0,1.2186,1.2201,1.2249,1.2305,1.2345,1.239,1.2435,1.246,1.2499,1.2538,1.2596,1.2633,1.2706,1.2763,1.2821,1.2852,1.2862,1.2866,1.2876,1.287,1.2856,1.2864,1.2777,1.2863,1.2863,1.2863,1.2862,1.2862,1.2228,1.2265,1.2314,1.2368,1.2405,1.2446,1.2486,1.2519,1.2568,1.263,1.2645,1.2706,1.2755,1.2834,1.2866,1.2914,1.291,1.2925,1.2929,1.2932,1.2933,1.2848,1.2925,1.2925,1.2925,1.2925,1.2925,0,1.2294,1.2326,1.2376,1.2438,1.248,1.2486,1.2536,1.2571,1.2624,1.2669,1.2716,1.2782,1.2838,1.2881,1.2938,1.2968,1.2974,1.2982,1.298,1.2987,1.2934,1.2919,1.2976,1.2976,1.2976,1.2976,1.2976,1.2976,1.2333,1.2396,1.2417,1.2499,1.2531,1.2591,1.2619,1.2657,1.2693,1.2767,1.2813,1.2841,1.2885,1.2945,1.2996,1.3007,1.3028,1.3035,1.3047,1.2996,1.2991,1.2986,1.2972,1.3039,1.3039,1.3096,1.3097,1.3097]}]]